TimePST,TemperatureF,Dew PointF,Humidity,Sea Level PressureIn,VisibilityMPH,Wind Direction,Wind SpeedMPH,Gust SpeedMPH,PrecipitationIn,Events,Conditions,WindDirDegrees,DateUTC
12:51 AM,64.0,28.9,27,30.15,10.0,Calm,Calm,-,N/A,,Clear,0,2013-02-02 08:51:00
1:51 AM,63.0,30.9,30,30.15,10.0,SW,3.5,-,N/A,,Clear,220,2013-02-02 09:51:00
2:51 AM,63.0,30.9,30,30.14,10.0,Calm,Calm,-,N/A,,Clear,0,2013-02-02 10:51:00
3:51 AM,64.0,28.9,27,30.14,10.0,Calm,Calm,-,N/A,,Clear,0,2013-02-02 11:51:00
4:51 AM,64.9,30.0,27,30.14,10.0,Calm,Calm,-,N/A,,Clear,0,2013-02-02 12:51:00
5:51 AM,64.9,35.1,33,30.14,10.0,North,5.8,-,N/A,,Clear,350,2013-02-02 13:51:00
6:51 AM,63.0,32.0,31,30.15,10.0,North,4.6,-,N/A,,Clear,360,2013-02-02 14:51:00
7:51 AM,64.0,34.0,33,30.16,10.0,NNE,4.6,-,N/A,,Clear,20,2013-02-02 15:51:00
8:51 AM,64.9,37.9,37,30.17,10.0,North,5.8,-,N/A,,Clear,360,2013-02-02 16:51:00
9:51 AM,66.9,39.0,36,30.18,10.0,West,3.5,-,N/A,,Scattered Clouds,270,2013-02-02 17:51:00
10:51 AM,66.9,42.1,40,30.17,10.0,Calm,Calm,-,N/A,,Partly Cloudy,0,2013-02-02 18:51:00
11:51 AM,66.9,42.1,40,30.15,10.0,West,5.8,-,N/A,,Mostly Cloudy,270,2013-02-02 19:51:00
12:51 PM,66.9,45.0,45,30.12,10.0,Calm,Calm,-,N/A,,Mostly Cloudy,0,2013-02-02 20:51:00
1:51 PM,66.0,37.9,36,30.10,10.0,North,5.8,-,N/A,,Overcast,10,2013-02-02 21:51:00
2:51 PM,64.9,39.0,39,30.11,10.0,North,5.8,-,N/A,,Overcast,10,2013-02-02 22:51:00
3:51 PM,66.0,37.9,36,30.12,10.0,NNW,5.8,-,N/A,,Overcast,330,2013-02-02 23:51:00
5:51 PM,64.0,33.1,31,30.13,10.0,NW,10.4,-,0.00,Rain,Light Rain,310,2013-02-03 01:51:00
6:51 PM,60.1,39.0,46,30.17,10.0,WSW,11.5,-,0.00,,Overcast,250,2013-02-03 02:51:00
7:51 PM,59.0,39.0,48,30.17,10.0,WSW,10.4,-,N/A,,Overcast,240,2013-02-03 03:51:00
8:51 PM,62.1,39.0,43,30.15,10.0,WNW,10.4,-,0.00,,Mostly Cloudy,300,2013-02-03 04:51:00
9:51 PM,62.1,39.9,44,30.15,10.0,NW,12.7,-,N/A,,Overcast,320,2013-02-03 05:51:00
10:51 PM,62.1,39.9,44,30.15,10.0,NW,10.4,-,0.00,Rain,Light Rain,320,2013-02-03 06:51:00
11:51 PM,63.0,39.9,43,30.14,10.0,NNW,8.1,-,0.00,Rain,Light Rain,340,2013-02-03 07:51:00